Notices

What's New in latest Release from April 7th, 2021:

- Updated Glossary, including Speed of Maximum Gust, and Total Hourly Precipitation

- Updated national and regional climate services offices contacts and prices information

- Addition of station inventory lists for 1981-2010, 1971-2000, and 1961-1990 Normals.

If you haven't already, please take our survey and provide feedback about our website: https://eccc.sondage-survey.ca/f/LanguageSelection.aspx?s=442ca660-fcf1-47c0-95a9-59707d6fd709

Hourly Data Report for April 10, 2021

KUGAARUK CLIMATE
NUNAVUT
Current Station Operator: ECCC - MSC

68°32'15.060" N
89°47'47.020" W
15.80 m
2303094
71407
NBB

Download Data

Hourly Data (April 2021)
Hourly Data Report for April 10, 2021
TIME
LST
Temp Definition
°C
Dew Point Definition
°C
Rel Hum Definition
%
Precip. Amount Definition
mm

Wind Dir Definition
10's deg

Wind Spd Definition
km/h
Visibility Definition
km
Stn Press Definition
kPa
Hmdx Definition


Wind Chill Definition


Weather Definition


00:00 -19.0 -22.4 75 0.0 23 11   101.58   -26 LegendNANA
01:00 -19.4 -22.6 76 0.0 23 14   101.63   -28 LegendNANA
02:00 -19.8 -22.6 78 0.0 23 18   101.65   -30 LegendNANA
03:00 -20.9 -24.0 76 0.0 24 16   101.60   -31 LegendNANA
04:00 -22.5 -25.4 77 0.0 25 12   101.64   -31 LegendNANA
05:00 -22.5 -25.3 78 0.0 24 10   101.61   -30 LegendNANA
06:00 -21.1 -23.8 78 0.0 25 7   101.57   -27 LegendNANA
07:00 -22.5 -25.4 77 0.0 5 7   101.51   -29 LegendNANA
08:00 -20.2 -23.5 75 0.3 5 9   101.52   -27 LegendNANA
09:00 -19.0 -22.8 72 0.0 6 10   101.50   -26 LegendNANA
10:00 -17.9 -21.7 72 0.9 7 5   101.45   -22 LegendNANA
11:00 -16.9 -20.2 75 0.0 3 17   101.31   -26 LegendNANA
12:00 -15.6 -18.8 76 0.0 6 15   101.24   -24 LegendNANA
13:00 -15.0 -18.1 77 0.0 1 31   101.10   -26 LegendNANA
14:00 -14.1 -16.7 80 0.0 2 32   101.06   -25 LegendNANA
15:00 -13.7 -16.1 82 0.0 1 38   100.96   -25 LegendNANA
16:00 -13.2 -15.5 83 0.0 1 41   100.87   -25 LegendNANA
17:00 -12.7 -14.8 84 0.0 1 42   100.83   -25 LegendNANA
18:00 -12.4 -14.5 85 0.0 36 28   100.93   -22 LegendNANA
19:00 -12.6 -14.6 84 0.0 30 9   100.91   -18 LegendNANA
20:00 -13.4 -15.8 82 0.0 33 16   100.95   -21 LegendNANA
21:00 -13.5 -15.9 83 0.0 30 11   100.97   -20 LegendNANA
22:00 -13.9 -16.4 82 0.0 29 11   101.03   -20 LegendNANA
23:00 -14.2 -16.7 81 0.0 29 13   101.07   -21 LegendNANA

Notes on Data Quality.

Legend

  • E = Estimated
  • M = Missing
  • NA = Not Available*
  • [empty] = Indicates an unobserved value
Date modified: